| time (UTC) | temp C | wind direction | speed KPH | gust KPH | rain 1hr cm | rain 24hr cm | rain mn cm | humidity % | barometer mb |
| 20260902161918 | 30 | 339 | 6.4 | 14.5 | 0.00 | 0.03 | 0.00 | 79 | 1015.7 |
| 20260902160919 | 31 | 333 | 6.4 | 12.9 | 0.00 | 0.03 | 0.00 | 75 | 1015.8 |
| 20260902160404 | 31 | 325 | 8.0 | 16.1 | 0.00 | 0.03 | 0.00 | 77 | 1015.9 |
| 20260902155355 | 31 | 306 | 4.8 | 12.9 | 0.00 | 0.03 | 0.00 | 77 | 1016.0 |
| 20260902153919 | 31 | 21 | 4.8 | 14.5 | 0.00 | 0.03 | 0.00 | 78 | 1016.0 |
| 20260902152919 | 31 | 324 | 4.8 | 14.5 | 0.00 | 0.03 | 0.00 | 78 | 1016.2 |
| 20260902152349 | 30 | 1 | 4.8 | 11.3 | 0.00 | 0.03 | 0.00 | 82 | 1016.2 |
| 20260902150914 | 30 | 356 | 6.4 | 12.9 | 0.00 | 0.10 | 0.00 | 82 | 1016.3 |
| 20260902150410 | 30 | 5 | 6.4 | 16.1 | 0.00 | 0.33 | 0.00 | 82 | 1016.2 |
| 20260902144912 | 30 | 26 | 4.8 | 12.9 | 0.00 | 0.36 | 0.00 | 82 | 1016.1 |
| 20260902143911 | 29 | 24 | 3.2 | 11.3 | 0.00 | 0.38 | 0.00 | 84 | 1016.2 |
| 20260902142914 | 30 | 94 | 4.8 | 12.9 | 0.00 | 0.38 | 0.00 | 81 | 1016.2 |
| 20260902141910 | 29 | 354 | 1.6 | 4.8 | 0.00 | 0.38 | 0.00 | 85 | 1016.1 |
| 20260902140909 | 28 | 15 | 3.2 | 9.7 | 0.00 | 0.38 | 0.00 | 86 | 1016.1 |
| 20260902135908 | 28 | 10 | 1.6 | 4.8 | 0.00 | 0.38 | 0.00 | 89 | 1016.2 |
| 20260902135347 | 28 | 10 | 3.2 | 6.4 | 0.00 | 0.38 | 0.00 | 88 | 1016.1 |
| 20260902133904 | 28 | 10 | 3.2 | 8.0 | 0.00 | 0.38 | 0.00 | 89 | 1016.1 |
| 20260902132904 | 27 | 22 | 4.8 | 8.0 | 0.00 | 0.38 | 0.00 | 90 | 1016.2 |
| 20260902131902 | 27 | 23 | 4.8 | 12.9 | 0.00 | 0.38 | 0.00 | 91 | 1016.3 |
| 20260902130902 | 27 | 20 | 4.8 | 12.9 | 0.00 | 0.38 | 0.00 | 91 | 1016.2 |
| 20260902125901 | 27 | 20 | 6.4 | 14.5 | 0.00 | 0.38 | 0.00 | 92 | 1016.0 |
| 20260902124903 | 27 | 343 | 4.8 | 9.7 | 0.00 | 0.38 | 0.00 | 93 | 1016.1 |
| 20260902124828 | 26 | 340 | 4.8 | 9.7 | 0.00 | 0.38 | 0.00 | 94 | 1016.1 |
| 20260902122859 | 26 | 348 | 1.6 | 9.7 | 0.00 | 0.38 | 0.00 | 94 | 1016.1 |
| 20260902121858 | 26 | 341 | 1.6 | 6.4 | 0.00 | 0.38 | 0.00 | 95 | 1016.1 |
| 20260902120859 | 26 | 340 | 0.0 | 3.2 | 0.00 | 0.38 | 0.00 | 95 | 1016.1 |
| 20260902115859 | 25 | 340 | 0.0 | 3.2 | 0.00 | 0.38 | 0.00 | 95 | 1016.0 |
| 20260902114858 | 25 | 340 | 0.0 | 3.2 | 0.00 | 0.38 | 0.00 | 95 | 1015.8 |
| 20260902114334 | 25 | 340 | 0.0 | 4.8 | 0.00 | 0.38 | 0.00 | 95 | 1015.8 |
| 20260902112857 | 25 | 340 | 0.0 | 3.2 | 0.00 | 0.38 | 0.00 | 95 | 1015.7 |
| 20260902111858 | 25 | 340 | 0.0 | 3.2 | 0.00 | 0.38 | 0.00 | 94 | 1015.6 |
| 20260902110900 | 25 | 340 | 1.6 | 6.4 | 0.00 | 0.38 | 0.00 | 94 | 1015.5 |
| 20260902105844 | 25 | 340 | 3.2 | 6.4 | 0.00 | 0.38 | 0.00 | 95 | 1015.2 |
| 20260902104844 | 25 | 347 | 3.2 | 6.4 | 0.00 | 0.38 | 0.00 | 94 | 1015.2 |
| 20260902103845 | 25 | 352 | 3.2 | 8.0 | 0.00 | 0.38 | 0.00 | 95 | 1015.1 |
| 20260902103324 | 25 | 48 | 1.6 | 4.8 | 0.00 | 0.38 | 0.00 | 94 | 1015.0 |
| 20260902101845 | 25 | 100 | 1.6 | 4.8 | 0.00 | 0.38 | 0.00 | 95 | 1015.0 |
| 20260902101332 | 24 | 100 | 0.0 | 3.2 | 0.00 | 0.38 | 0.00 | 94 | 1015.0 |
| 20260902095841 | 25 | 100 | 1.6 | 4.8 | 0.00 | 0.38 | 0.00 | 94 | 1015.0 |
| 20260902094842 | 24 | 100 | 0.0 | 1.6 | 0.00 | 0.38 | 0.00 | 94 | 1015.0 |
| 20260902093841 | 24 | 100 | 0.0 | 1.6 | 0.00 | 0.38 | 0.00 | 94 | 1015.0 |
| 20260902092838 | 24 | 100 | 0.0 | 3.2 | 0.00 | 0.38 | 0.00 | 94 | 1014.9 |
| 20260902091840 | 24 | 100 | 1.6 | 3.2 | 0.00 | 0.38 | 0.00 | 94 | 1014.9 |
| 20260902090840 | 24 | 100 | 0.0 | 1.6 | 0.00 | 0.38 | 0.00 | 94 | 1014.8 |
| 20260902085838 | 24 | 100 | 0.0 | 0.0 | 0.00 | 0.38 | 0.00 | 94 | 1014.7 |
| 20260902084840 | 24 | 100 | 0.0 | 0.0 | 0.00 | 0.38 | 0.00 | 94 | 1014.7 |
| 20260902084320 | 24 | 100 | 0.0 | 0.0 | 0.00 | 0.38 | 0.00 | 94 | 1014.7 |
| 20260902082839 | 24 | 100 | 0.0 | 0.0 | 0.00 | 0.38 | 0.00 | 94 | 1014.7 |
| 20260902081840 | 24 | 100 | 0.0 | 1.6 | 0.00 | 0.38 | 0.00 | 94 | 1014.7 |
| 20260902080835 | 25 | 100 | 0.0 | 3.2 | 0.00 | 0.38 | 0.00 | 94 | 1014.7 |
| 20260902075836 | 24 | 100 | 0.0 | 3.2 | 0.00 | 0.38 | 0.00 | 94 | 1014.7 |
| 20260902074835 | 24 | 100 | 3.2 | 6.4 | 0.00 | 0.38 | 0.00 | 94 | 1014.7 |
| 20260902073826 | 24 | 100 | 1.6 | 3.2 | 0.00 | 0.38 | 0.00 | 94 | 1014.7 |
| 20260902072824 | 24 | 100 | 0.0 | 1.6 | 0.00 | 0.38 | 0.00 | 94 | 1014.8 |
| 20260902071823 | 25 | 100 | 0.0 | 1.6 | 0.00 | 0.38 | 0.00 | 94 | 1014.9 |
| 20260902070822 | 25 | 100 | 0.0 | 1.6 | 0.00 | 0.38 | 0.00 | 94 | 1014.8 |
| 20260902065810 | 25 | 100 | 0.0 | 0.0 | 0.00 | 0.38 | 0.00 | 94 | 1014.9 |
| 20260902064810 | 24 | 100 | 0.0 | 0.0 | 0.00 | 0.38 | 0.00 | 94 | 1014.9 |
| 20260902063809 | 24 | 100 | 0.0 | 1.6 | 0.00 | 0.38 | 0.00 | 94 | 1015.0 |
| 20260902062810 | 24 | 100 | 0.0 | 0.0 | 0.00 | 0.38 | 0.00 | 93 | 1015.2 |
| 20260902061755 | 25 | 100 | 0.0 | 0.0 | 0.00 | 0.38 | 0.00 | 94 | 1015.4 |
| 20260902060757 | 25 | 100 | 0.0 | 0.0 | 0.00 | 0.38 | 0.00 | 93 | 1015.3 |
| 20260902055756 | 25 | 100 | 0.0 | 0.0 | 0.00 | 0.38 | 0.00 | 93 | 1015.4 |
| 20260902054755 | 25 | 100 | 0.0 | 0.0 | 0.00 | 0.38 | 0.00 | 93 | 1015.6 |
| 20260902053752 | 25 | 100 | 0.0 | 0.0 | 0.00 | 0.38 | 0.00 | 93 | 1015.5 |
| 20260902052753 | 25 | 100 | 0.0 | 0.0 | 0.00 | 0.38 | 0.00 | 93 | 1015.5 |
| 20260902051753 | 25 | 100 | 0.0 | 0.0 | 0.00 | 0.38 | 0.00 | 93 | 1015.5 |
| 20260902050754 | 25 | 100 | 0.0 | 0.0 | 0.00 | 0.38 | 0.00 | 93 | 1015.5 |
| 20260902045753 | 25 | 100 | 0.0 | 0.0 | 0.00 | 0.38 | 0.00 | 93 | 1015.5 |
| 20260902044747 | 25 | 100 | 0.0 | 0.0 | 0.00 | 0.38 | 0.00 | 92 | 1015.6 |
| 20260902043746 | 25 | 100 | 0.0 | 0.0 | 0.00 | 0.38 | 0.00 | 92 | 1015.7 |
| 20260902042747 | 25 | 100 | 0.0 | 0.0 | 0.00 | 0.38 | 0.00 | 92 | 1015.7 |
| 20260902041746 | 25 | 100 | 0.0 | 0.0 | 0.00 | 0.38 | 0.00 | 92 | 1015.7 |
| 20260902040747 | 25 | 100 | 0.0 | 1.6 | 0.00 | 0.38 | 0.00 | 91 | 1015.8 |
| 20260902040224 | 25 | 100 | 1.6 | 3.2 | 0.00 | 0.38 | 0.38 | 91 | 1015.8 |
| 20260902034744 | 26 | 100 | 1.6 | 3.2 | 0.00 | 0.38 | 0.38 | 91 | 1015.9 |
| 20260902033745 | 26 | 100 | 0.0 | 3.2 | 0.00 | 0.38 | 0.38 | 91 | 1016.0 |
| 20260902032746 | 26 | 100 | 0.0 | 0.0 | 0.00 | 0.38 | 0.38 | 91 | 1016.0 |
| 20260902031744 | 26 | 100 | 0.0 | 0.0 | 0.00 | 0.38 | 0.38 | 91 | 1016.1 |
| 20260902030749 | 26 | 100 | 0.0 | 0.0 | 0.00 | 0.38 | 0.38 | 90 | 1016.1 |
| 20260902025746 | 26 | 100 | 0.0 | 0.0 | 0.00 | 0.38 | 0.38 | 90 | 1016.2 |
| 20260902024745 | 26 | 100 | 0.0 | 0.0 | 0.00 | 0.38 | 0.38 | 90 | 1016.3 |
| 20260902023745 | 26 | 100 | 0.0 | 0.0 | 0.00 | 0.38 | 0.38 | 90 | 1016.3 |
| 20260902022745 | 26 | 100 | 0.0 | 0.0 | 0.00 | 0.38 | 0.38 | 89 | 1016.4 |
| 20260902021744 | 26 | 100 | 0.0 | 4.8 | 0.00 | 0.38 | 0.38 | 89 | 1016.3 |
| 20260902021705 | 26 | 100 | 1.6 | 4.8 | 0.00 | 0.38 | 0.38 | 89 | 1016.2 |
| 20260902015747 | 26 | 100 | 0.0 | 3.2 | 0.00 | 0.38 | 0.38 | 90 | 1015.9 |
| 20260902014721 | 26 | 100 | 0.0 | 1.6 | 0.00 | 0.38 | 0.38 | 90 | 1016.0 |
| 20260902014118 | 26 | 100 | 0.0 | 3.2 | 0.00 | 0.38 | 0.38 | 89 | 1016.0 |
| 20260902013111 | 26 | 100 | 0.0 | 0.0 | 0.00 | 0.38 | 0.38 | 89 | 1016.1 |
| 20260902011634 | 27 | 100 | 0.0 | 0.0 | 0.00 | 0.38 | 0.38 | 89 | 1015.9 |
| 20260902010628 | 27 | 100 | 0.0 | 0.0 | 0.00 | 0.38 | 0.38 | 88 | 1015.9 |
| 20260902005627 | 27 | 100 | 0.0 | 0.0 | 0.00 | 0.38 | 0.38 | 87 | 1016.0 |
| 20260902004623 | 27 | 100 | 0.0 | 3.2 | 0.00 | 0.38 | 0.38 | 85 | 1015.9 |
| 20260902003602 | 27 | 100 | 0.0 | 4.8 | 0.00 | 0.38 | 0.38 | 85 | 1015.8 |
| 20260902002558 | 28 | 100 | 0.0 | 6.4 | 0.00 | 0.38 | 0.38 | 85 | 1015.8 |
| 20260902001547 | 28 | 98 | 1.6 | 6.4 | 0.00 | 0.38 | 0.38 | 84 | 1015.7 |
| 20260902000541 | 28 | 96 | 1.6 | 6.4 | 0.00 | 0.38 | 0.38 | 84 | 1015.6 |
| 20260901235540 | 28 | 96 | 1.6 | 6.4 | 0.00 | 0.38 | 0.38 | 84 | 1015.5 |
| 20260901235012 | 28 | 96 | 3.2 | 6.4 | 0.00 | 0.38 | 0.38 | 83 | 1015.5 |
| 20260901234012 | 28 | 96 | 4.8 | 8.0 | 0.00 | 0.38 | 0.38 | 82 | 1015.5 |
| 20260901232537 | 28 | 69 | 3.2 | 11.3 | 0.00 | 0.38 | 0.38 | 82 | 1015.4 |
| 20260901231537 | 28 | 95 | 3.2 | 9.7 | 0.00 | 0.38 | 0.38 | 82 | 1015.5 |
| 20260901230526 | 28 | 96 | 1.6 | 9.7 | 0.00 | 0.38 | 0.38 | 82 | 1015.3 |
| 20260901225524 | 28 | 97 | 1.6 | 6.4 | 0.00 | 0.38 | 0.38 | 81 | 1015.2 |
| 20260901224524 | 28 | 97 | 1.6 | 9.7 | 0.00 | 0.38 | 0.38 | 80 | 1015.4 |
| 20260901224010 | 28 | 90 | 3.2 | 6.4 | 0.00 | 0.38 | 0.38 | 79 | 1015.2 |
| 20260901222511 | 29 | 90 | 4.8 | 11.3 | 0.00 | 0.38 | 0.38 | 78 | 1015.2 |
| 20260901221510 | 29 | 79 | 3.2 | 11.3 | 0.00 | 0.38 | 0.38 | 77 | 1015.1 |
| 20260901220508 | 29 | 97 | 4.8 | 14.5 | 0.00 | 0.38 | 0.38 | 77 | 1015.0 |
| 20260901220002 | 30 | 113 | 4.8 | 11.3 | 0.00 | 0.38 | 0.38 | 77 | 1014.9 |
| 20260901214505 | 30 | 78 | 6.4 | 12.9 | 0.00 | 0.38 | 0.38 | 77 | 1014.9 |
| 20260901213505 | 30 | 71 | 6.4 | 16.1 | 0.00 | 0.38 | 0.38 | 76 | 1014.8 |
| 20260901213414 | 31 | 55 | 6.4 | 17.7 | 0.00 | 0.38 | 0.38 | 74 | 1014.6 |
| 20260901211458 | 31 | 45 | 6.4 | 17.7 | 0.00 | 0.38 | 0.38 | 75 | 1014.5 |
| 20260901210455 | 31 | 63 | 8.0 | 16.1 | 0.00 | 0.38 | 0.38 | 73 | 1014.7 |
| 20260901205454 | 31 | 43 | 8.0 | 16.1 | 0.00 | 0.38 | 0.38 | 73 | 1015.0 |
| 20260901204454 | 32 | 90 | 8.0 | 17.7 | 0.00 | 0.41 | 0.38 | 71 | 1014.8 |
| 20260901203445 | 32 | 15 | 9.7 | 20.9 | 0.00 | 0.43 | 0.38 | 72 | 1014.8 |
| 20260901202922 | 32 | 67 | 11.3 | 20.9 | 0.00 | 0.43 | 0.38 | 72 | 1015.0 |
| 20260901201434 | 32 | 5 | 12.9 | 27.4 | 0.03 | 0.46 | 0.38 | 73 | 1015.0 |
| 20260901200432 | 32 | 27 | 11.3 | 24.1 | 0.03 | 0.46 | 0.38 | 71 | 1015.0 |
| 20260901195426 | 32 | 25 | 9.7 | 17.7 | 0.03 | 0.48 | 0.38 | 74 | 1015.1 |
| 20260901194426 | 32 | 60 | 9.7 | 19.3 | 0.03 | 0.51 | 0.38 | 74 | 1015.2 |
| 20260901193420 | 32 | 44 | 9.7 | 22.5 | 0.03 | 0.53 | 0.38 | 73 | 1015.2 |
| 20260901192420 | 32 | 54 | 11.3 | 22.5 | 0.03 | 0.56 | 0.38 | 73 | 1015.2 |
| 20260901191855 | 32 | 25 | 8.0 | 16.1 | 0.00 | 0.56 | 0.36 | 73 | 1015.1 |
| 20260901190852 | 32 | 43 | 8.0 | 17.7 | 0.00 | 0.61 | 0.36 | 69 | 1015.5 |
| 20260901185409 | 31 | 10 | 9.7 | 19.3 | 0.00 | 0.74 | 0.36 | 74 | 1015.6 |
| 20260901184846 | 31 | 27 | 6.4 | 16.1 | 0.00 | 0.99 | 0.36 | 81 | 1015.9 |
| 20260901183405 | 30 | 59 | 8.0 | 16.1 | 0.00 | 1.07 | 0.36 | 80 | 1016.0 |
| 20260901182402 | 30 | 10 | 11.3 | 20.9 | 0.00 | 1.07 | 0.36 | 81 | 1016.2 |
| 20260901181402 | 30 | 1 | 14.5 | 27.4 | 0.00 | 1.07 | 0.36 | 81 | 1016.1 |
| 20260901180401 | 30 | 5 | 8.0 | 16.1 | 0.00 | 1.07 | 0.36 | 80 | 1016.3 |
| 20260901175357 | 30 | 346 | 3.2 | 9.7 | 0.00 | 1.07 | 0.36 | 82 | 1016.3 |
| 20260901174353 | 29 | 317 | 1.6 | 6.4 | 0.00 | 1.07 | 0.36 | 84 | 1016.3 |
| 20260901173354 | 29 | 317 | 1.6 | 6.4 | 0.00 | 1.07 | 0.36 | 86 | 1016.5 |
| 20260901172345 | 29 | 318 | 0.0 | 4.8 | 0.00 | 1.07 | 0.36 | 87 | 1016.6 |
| 20260901171836 | 28 | 318 | 1.6 | 6.4 | 0.00 | 1.07 | 0.36 | 87 | 1016.7 |
| 20260901170345 | 28 | 319 | 1.6 | 4.8 | 0.00 | 1.07 | 0.36 | 88 | 1016.9 |
| 20260901165827 | 28 | 320 | 0.0 | 3.2 | 0.00 | 1.07 | 0.36 | 90 | 1017.0 |
| 20260901164334 | 27 | 320 | 0.0 | 1.6 | 0.00 | 1.07 | 0.36 | 89 | 1017.0 |
| 20260901163332 | 27 | 320 | 0.0 | 6.4 | 0.00 | 1.07 | 0.36 | 91 | 1017.1 |
| 20260901162329 | 27 | 22 | 1.6 | 6.4 | 0.00 | 1.07 | 0.36 | 91 | 1017.2 |